Location: Unspecified
(35.7250°N, 0.0000°E)
Time: 18:46:34
(UTC+00:00)

Vanguard 2 - Pass Details

Date: 21 June 2019
Orbit: 553 x 2938 km, 32.9° (Epoch: 20 August)

Event Time Altitude Azimuth Distance (km) Brightness Sun altitude
Rises 09:40:07 0° 259° (WSW) 3,377 10.5 57.1°
Reaches altitude 10° 09:42:10 10° 257° (WSW) 2,639 10.1 57.5°
Maximum altitude 09:48:33 73° 173° (S) 1,346 10.1 58.7°
Drops below altitude 10° 09:59:31 10° 92° (E) 4,388 12.0 60.9°
Sets 10:03:55 0° 91° (E) 5,765 12.4 61.7°
